Location: Ch�tillon
(48.8024°N, 2.2935°E)
Time: 02:09:02
(UTC+00:00)

STRAND 1 - Pass Details

Date: 29 June 2022
Orbit: 767 x 781 km, 98.4° (Epoch: 07 August)

Event Time Altitude Azimuth Distance (km) Brightness Sun altitude
Rises 20:48:23 0° 1° (N) 3,276 ? -6.9°
Reaches altitude 10° 20:51:37 10° 340° (NNW) 2,340 ? -7.3°
Maximum altitude 20:54:31 15° 305° (NW) 1,980 ? -7.6°
Drops below altitude 10° 20:57:25 10° 271° (W) 2,327 ? -7.9°
Sets 21:00:37 0° 249° (WSW) 3,246 ? -8.2°
